Simultaneous Nadir Overpasses (SNOs) Predictions

Prediction of SNOs between GOES-15 and METOP-C Satellite Orbit:

Table of predicted SNOs for the next 14.0 days since TLE Epoch: 4/6/2024
Index Date Time (GOES-15) GOES-15 Lat,Lon METOP-C Lat,Lon Distance(km) Time Diff (sec)
1 04/07/2024 05:24:36 -0.08, 61.24 -0.12, 61.51 31.06 80
2 04/08/2024 17:43:35 0.09, 61.20 -0.88, 56.92 488.38 80
3 04/09/2024 17:20:14 0.09, 61.21 0.24, 61.92 80.45 80
4 04/11/2024 05:39:05 -0.10, 61.26 0.76, 57.35 445.12 80
5 04/12/2024 05:21:05 -0.10, 61.27 -0.36, 62.35 123.49 80
6 04/13/2024 17:40:02 0.11, 61.24 -0.69, 57.77 396.75 80
7 04/14/2024 17:16:42 0.11, 61.26 0.43, 62.77 171.45 80
8 04/16/2024 05:35:33 -0.12, 61.32 0.56, 58.20 354.98 80
9 04/17/2024 05:17:32 -0.12, 61.33 -0.51, 63.21 213.45 80
10 04/18/2024 17:36:30 0.13, 61.30 -0.47, 58.61 306.60 80
11 04/19/2024 17:15:49 0.12, 61.32 0.65, 63.61 261.66 80
